Regional Weather Roundup
Issued by NWS

Home | Current Version | Previous Version | Text Only | Print | Product List | Glossary Off
Versions: 1 2 3 4 5 6 7 8 9 10 11 12 13 14 15 16 17 18 19 20 21 22 23 24 25 26 27 28 29 30 31 32 33 34 35 36 37 38 39 40 41 42 43 44 45 46 47 48 49 50

000
ASUS43 KDTX 061501
RWRMI
MICHIGAN HOURLY REGIONAL WEATHER ROUNDUP
NATIONAL WEATHER SERVICE DETROIT/PONTIAC MI
1000 AM EST TUE DEC 06 2016

NOTE: "FAIR" INDICATES FEW OR NO CLOUDS BELOW 12,000 FEET WITH NO
SIGNIFICANT WEATHER AND/OR OBSTRUCTION TO VISIBILITY.

MIZ047>049-052>055-059>063-066>070-074>076-081>083-061600-
SOUTHEAST LOWER MICHIGAN

CITY           SKY/WX    TMP DP  RH WIND       PRES   REMARKS
ADRIAN         CLOUDY    35  33  92 E12       29.77F WCI  27
ALMA           MOSUNNY   32  31  96 NE9       29.84F FOG     WCI  24
ANN ARBOR      CLOUDY    38  34  85 NE15      29.77F WCI  29
BAD AXE        CLOUDY    36  32  84 SE8       29.88F WCI  30
CARO           MOSUNNY   35  32  90 E6        29.86F WCI  29
DETROIT CITY   CLOUDY    39  36  89 E14G23    29.81F WCI  31
DETROIT        CLOUDY    39  34  82 E9G21     29.79F WCI  33
FLINT          CLOUDY    35  32  88 E13       29.82F WCI  26
GROSSE ILE     PTSUNNY   39  35  84 E10       29.78F WCI  32
HILLSDALE      CLOUDY    34  32  93 E14       29.74F WCI  24
HOWELL         CLOUDY    37  32  84 E12       29.80S WCI  29

CITY           SKY/WX    TMP DP  RH WIND       PRES   REMARKS
JACKSON        CLOUDY    37  32  82 E10       29.77F WCI  30
LAMBERTVILLE   PTSUNNY   41  34  75 E12G17    29.77F
LANSING        MOSUNNY   35  31  85 E8        29.81F WCI  29
LAPEER         NOT AVBL
MASON          CLOUDY    35  33  91 E5        29.79F WCI  31
MONROE         PTSUNNY   41  35  79 E15G23    29.78F
MT. CLEMENS    CLOUDY    37  35  89 E14       29.82F WCI  29
PONTIAC        CLOUDY    36  31  82 E13       29.80F WCI  27
PORT HOPE        N/A     40  32  73 SE25      29.88F WCI  29
PORT HURON     PTSUNNY   36  32  87 E10       29.86F WCI  28
TRI CITIES     MOSUNNY   32  31  96 NE8       29.86F FOG     WCI  25
MIDLAND        NOT AVBL
TROY           PTSUNNY   36  32  85 NE10      29.83F WCI  29
SAGINAW HB     MOSUNNY   34  30  86 E6        29.85F WCI  29
$$
MIZ043>046-050>051-056>058-064>065-071>073-077>080-061600-
SOUTHWEST LOWER MICHIGAN

CITY           SKY/WX    TMP DP  RH WIND       PRES   REMARKS
BATTLE CREEK   CLOUDY    35  33  92 E10       29.76F WCI  27
BENTON HARBOR  PTSUNNY   34  28  79 CALM      29.77S HAZE
BIG RAPIDS     CLOUDY    35  30  83 E8        29.82F WCI  28
COLDWATER      CLOUDY    37  32  83 E9        29.76F WCI  30
FREMONT        PTSUNNY   33  29  85 E9        29.80F WCI  25
HOLLAND        MOSUNNY   33  30  88 E8        29.79F WCI  26
GRAND RAPIDS   CLOUDY    31  28  89 NE8       29.80F FOG     WCI  23
IONIA          PTSUNNY   29  29  99 NE8       29.80F FOG     WCI  22
KALAMAZOO      CLOUDY    35  30  82 E7        29.75F HAZE    WCI  29
LUDINGTON      CLOUDY    32  29  90 SE6       29.83S WCI  26
MARSHALL       CLOUDY    35  32  90 E8        29.76F WCI  29
MOUNT PLEASANT SUNNY     32  30  93 NE5       29.86S FOG     WCI  27
MUSKEGON       CLOUDY    34  31  88 E6        29.80F WCI  29
SOUTH HAVEN    CLOUDY    32  30  94 NE3       29.77S FOG
$$
MIZ016>042-061600-
NORTHERN LOWER MICHIGAN

CITY           SKY/WX    TMP DP  RH WIND       PRES   REMARKS
ALPENA         CLOUDY    35  32  88 CALM      29.93S FOG
BEAVER ISLAND  CLOUDY    38  33  81 SE12G20   29.83S WCI  30
BELLAIRE       MOSUNNY   36  31  83 SE7G18    29.84F WCI  30
CADILLAC       CLOUDY    32  29  90 SE13      29.82F WCI  22
CHARLEVOIX     MOSUNNY   37  31  80 SE10G21   29.86F WCI  29
FRANKFORT      CLOUDY    34  30  84 S3G9      29.84R
GAYLORD        CLOUDY    32  28  85 SE12G21   29.85F WCI  23
GRAYLING       CLOUDY    31  30  96 E6        29.87F FOG     WCI  25
HARBOR SPRINGS CLOUDY    35  31  85 E7        29.86F WCI  29
HOUGHTON LAKE  CLOUDY    33  30  88 SE10      29.87F WCI  25
MANISTEE       CLOUDY    33  28  81 SE8       29.83R WCI  26
OSCODA         CLOUDY    41  33  73 SE10      29.91F
PELLSTON       PTSUNNY   34  30  85 SE12      29.87F WCI  25
ROGERS CITY    CLOUDY    34  32  91 SE3       29.93S FOG
TRAVERSE CITY  CLOUDY    36  29  75 SE10G24   29.82F WCI  28
$$
MIZ007>008-015-061600-
EASTERN UPPER MICHIGAN

CITY           SKY/WX    TMP DP  RH WIND       PRES   REMARKS
KINROSS        CLOUDY    35  34  96 SE12      29.88  WCI  27
MACKINAC ISLAN CLOUDY    35  32  87 SE10G20   29.87F WCI  28
NEWBERRY       CLOUDY    34  33  96 SE13      29.83F WCI  25
S. S. MARIE    CLOUDY    36  34  92 E8        29.89F WCI  30
MUNISING         N/A     39  35  86 S9        29.77F WCI  33
$$
MIZ004>006-011>014-085-061600-
CENTRAL UPPER MICHIGAN

CITY           SKY/WX    TMP DP  RH WIND       PRES   REMARKS
MANISTIQUE     CLOUDY    40  36  87 SE12G17   29.82S WCI  33
ESCANABA       CLOUDY    40  33  76 S16G23    29.79R WCI  31
MENOMINEE      CLOUDY    39  35  86 S10       29.77F WCI  32
SAWYER-GWINN   CLOUDY    36  32  87 S14       29.75F WCI  27
$$
MIZ001>003-009>011-084-061600-
WESTERN UPPER MICHIGAN

CITY           SKY/WX    TMP DP  RH WIND       PRES   REMARKS
IRON MOUNTAIN  CLOUDY    37  31  78 S9        29.71F WCI  30
HOUGHTON       CLOUDY    37  30  75 SE12      29.65F WCI  29
COPPER HARBOR    N/A     41  36  82 S13G29    29.68F
IRONWOOD       LGT SNOW  33  30  88 S7        29.59S FOG     WCI  27
$$

ABBREVIATIONS USED IN REMARKS
   TC - TEMPERATURE IN CELSIUS
  WCI - WIND CHILL INDEX
   HX - HEAT INDEX
  VSB - VISIBILITY





USA.gov is the U.S. government's official web portal to all federal, state and local government web resources and services.